User: anonymous   Login
Location: Fort Wayne
(41.1310°N, 85.1290°W)
Time: 04:46:38
(UTC-05:00)
Language:

Meteor 2-10 Rocket - Orbit

View from above orbital plane
View from above orbital plane
View from above satellite
View from above satellite

Ground track
Ground track

The orbit data is extracted from the following two-line orbital elements,

1 14453U 83109B   16042.69409642  .00000068  00000-0  22266-4 0  9997
2 14453  81.1641 240.7238 0105696  45.9238 315.0580 14.24636380677542
Epoch (UTC): 11 February 2016 16:39:29
Eccentricity: 0.0105696
inclination: 81.1641°
perigee height: 734 km
apogee height: 885 km
right ascension of ascending node: 240.7238°
argument of perigee: 45.9238°
revolutions per day: 14.24636380
mean anomaly at epoch: 315.0580°
orbit number at epoch: 67754

The dashed part of the orbit path shows where the satellite is in the earth's shadow,  

DLR